Abbeville, LA

6:33 PM CDT on September 29, 2016 (GMT -0500)
Abbeville

Weather History for KIYA - May, 2014

Change the Weather History Date:

Tuesday, May 6, 2014

  Actual Average (KARA) Record (KARA)
Temperature  
Mean Temperature 78 °F 74 °F  
Max Temperature 86 °F 84 °F 92 °F (1952)
Min Temperature 71 °F 64 °F 47 °F (1957)
Degree Days  
Heating Degree Days 0 0  
Month to date heating degree days 0  
Since 1 July heating degree days 1408  
Cooling Degree Days 14 9  
Month to date cooling degree days 49  
Year to date cooling degree days 269  
Growing Degree Days 28 (Base 50)    
Moisture  
Dew Point 62 °F    
Average Humidity 58    
Maximum Humidity 100    
Minimum Humidity 37    
Precipitation  
Precipitation 0.00 in 0.13 in 1.01 in (1948)
Month to date precipitation 0.78  
Year to date precipitation 18.03  
Sea Level Pressure  
Sea Level Pressure 29.96 in    
Wind  
Wind Speed 6 mph (SSE)    
Max Wind Speed 14 mph    
Max Gust Speed 20 mph    
Visibility 10 miles    
Events      
T = Trace of Precipitation, MM = Missing Value Source: NWS Daily Summary

Daily Weather History Graph

Daily Weather History Graph

Search for Another Location

Airport or City:

Trip Planner

Search our weather history database for the weather conditions in past years. The results will help you decide how hot, cold, wet, or windy it might be!

Date:

Astronomy

May. 06, 2014 Rise Set
Actual Time 6:21 AM CDT 7:48 PM CDT
Civil Twilight 5:55 AM CDT 8:14 PM CDT
Nautical Twilight 5:25 AM CDT 8:45 PM CDT
Astronomical Twilight 4:53 AM CDT 9:17 PM CDT
Moon 12:32 PM CDT (5/6) 1:12 AM CDT (5/6)
Length of Visible Light 14h 18m
Length of Day
13h 27m
Waxing Crescent, 46% of the Moon is Illuminated
May 6
Waxing Crescent
May 6
First Quarter
May 14
Full
May 21
Last Quarter
May 28
New

Hourly Weather History & Observations

Time (CDT) Temp. Heat Index Dew Point Humidity Pressure Visibility Wind Dir Wind Speed Gust Speed Precip Events Conditions
12:15 AM - - - N/A% 29.99 in 10.0 mi South 4.6 mph - N/A   Clear
12:35 AM - - - N/A% 29.98 in 10.0 mi South 3.5 mph - N/A   Clear
12:55 AM - - - N/A% 29.98 in 10.0 mi South 3.5 mph - N/A   Clear
1:15 AM - - - N/A% 29.98 in 10.0 mi Calm Calm - N/A   Clear
1:35 AM - - - N/A% 29.97 in 10.0 mi Calm Calm - N/A   Clear
1:55 AM - - - N/A% 29.96 in 10.0 mi Calm Calm - N/A   Scattered Clouds
2:15 AM - - - N/A% 29.95 in 5.0 mi Calm Calm - N/A   Haze
2:35 AM - - - N/A% 29.95 in 7.0 mi Calm Calm - N/A   Mostly Cloudy
6:55 AM 71.1 °F - 66.6 °F 86% 29.96 in 10.0 mi South 3.5 mph - N/A   Overcast
7:15 AM 72.5 °F - 66.7 °F 82% 29.97 in 10.0 mi Calm Calm - N/A   Overcast
7:35 AM 73.8 °F - 66.6 °F 78% 29.98 in 10.0 mi SSW 3.5 mph - N/A   Overcast
7:55 AM 75.2 °F - 66.0 °F 73% 29.98 in 10.0 mi SSW 3.5 mph - N/A   Overcast
8:15 AM 75.9 °F - 65.7 °F 70% 29.99 in 10.0 mi South 3.5 mph - N/A   Overcast
9:15 AM 79.2 °F - 61.5 °F 55% 30.00 in 10.0 mi SSW 8.1 mph - N/A   Overcast
9:35 AM 79.7 °F - 59.9 °F 51% 30.00 in 10.0 mi SSW 10.4 mph - N/A   Overcast
9:55 AM 80.2 °F 80.8 °F 59.0 °F 48% 30.00 in 10.0 mi South 13.8 mph 18.4 mph N/A   Overcast
10:15 AM 81.1 °F 81.3 °F 57.7 °F 45% 30.00 in 10.0 mi SSE 13.8 mph - N/A   Overcast
10:35 AM 81.1 °F 81.3 °F 57.7 °F 45% 30.01 in 10.0 mi South 11.5 mph 17.3 mph N/A   Overcast
10:55 AM 81.5 °F 81.8 °F 59.7 °F 47% 30.01 in 10.0 mi South 10.4 mph - N/A   Overcast
11:15 AM 81.9 °F 81.7 °F 57.6 °F 43% 30.01 in 10.0 mi South 11.5 mph 17.3 mph N/A   Overcast
11:35 AM 83.5 °F 82.9 °F 57.4 °F 41% 30.01 in 10.0 mi SSW 13.8 mph - N/A   Overcast
11:55 AM 83.3 °F 82.8 °F 57.0 °F 41% 30.01 in 10.0 mi South 12.7 mph 16.1 mph N/A   Overcast
12:15 PM 84.9 °F 84.1 °F 57.6 °F 39% 30.00 in 10.0 mi South 12.7 mph 18.4 mph N/A   Mostly Cloudy
12:35 PM 83.8 °F 83.1 °F 57.4 °F 40% 30.00 in 10.0 mi SSW 8.1 mph 17.3 mph N/A   Overcast
12:55 PM 85.6 °F 85.0 °F 59.0 °F 40% 29.99 in 10.0 mi South 8.1 mph - N/A   Mostly Cloudy
1:15 PM 85.8 °F 85.0 °F 58.1 °F 39% 29.99 in 10.0 mi SSE 10.4 mph 18.4 mph N/A   Mostly Cloudy
1:35 PM 85.3 °F 84.6 °F 58.6 °F 40% 29.98 in 10.0 mi SSE 9.2 mph 17.3 mph N/A   Scattered Clouds
1:55 PM 85.3 °F 85.2 °F 60.4 °F 43% 29.98 in 10.0 mi SSE 11.5 mph 17.3 mph N/A   Mostly Cloudy
2:15 PM 85.1 °F 84.6 °F 59.2 °F 41% 29.97 in 10.0 mi SE 13.8 mph 19.6 mph N/A   Scattered Clouds
2:35 PM 86.2 °F 85.6 °F 59.0 °F 40% 29.97 in 10.0 mi SSE 12.7 mph 16.1 mph N/A   Scattered Clouds
3:15 PM 86.2 °F 85.0 °F 57.2 °F 37% 29.95 in 10.0 mi South 8.1 mph 16.1 mph N/A   Clear
3:35 PM 85.5 °F 84.6 °F 58.1 °F 39% 29.95 in 10.0 mi SSE 10.4 mph - N/A   Clear
3:55 PM 85.6 °F 84.8 °F 57.9 °F 39% 29.94 in 10.0 mi SE 11.5 mph 16.1 mph N/A   Clear
4:15 PM 85.8 °F 84.8 °F 57.7 °F 38% 29.94 in 10.0 mi South 10.4 mph 19.6 mph N/A   Scattered Clouds
4:35 PM 85.3 °F 84.6 °F 58.1 °F 40% 29.93 in 10.0 mi SSE 10.4 mph 17.3 mph N/A   Clear
4:55 PM 85.1 °F 84.3 °F 57.6 °F 39% 29.93 in 10.0 mi South 11.5 mph 18.4 mph N/A   Clear
5:15 PM 84.9 °F 84.4 °F 58.5 °F 41% 29.93 in 10.0 mi SSE 8.1 mph 11.5 mph N/A   Clear
5:35 PM 84.4 °F 83.8 °F 58.5 °F 41% 29.93 in 10.0 mi SSE 9.2 mph - N/A   Clear
5:55 PM 84.2 °F 83.7 °F 58.5 °F 41% 29.94 in 10.0 mi South 11.5 mph 19.6 mph N/A   Clear
6:15 PM 83.5 °F 83.4 °F 59.4 °F 44% 29.93 in 10.0 mi SSE 11.5 mph - N/A   Clear
6:35 PM 82.4 °F 82.3 °F 58.5 °F 44% 29.93 in 10.0 mi SSE 11.5 mph 16.1 mph N/A   Clear
6:55 PM 81.5 °F 81.5 °F 57.6 °F 44% 29.93 in 10.0 mi SSE 10.4 mph - N/A   Clear
7:15 PM 80.4 °F 81.1 °F 59.5 °F 49% 29.93 in 10.0 mi SSE 8.1 mph - N/A   Clear
7:35 PM 79.0 °F - 61.0 °F 54% 29.92 in 10.0 mi SE 6.9 mph - N/A   Clear
7:55 PM 77.7 °F - 63.5 °F 61% 29.92 in 10.0 mi SSE 5.8 mph - N/A   Clear
8:15 PM 76.3 °F - 65.5 °F 69% 29.92 in 10.0 mi SE 3.5 mph - N/A   Clear
8:35 PM 75.7 °F - 66.2 °F 72% 29.93 in 10.0 mi ESE 3.5 mph - N/A   Clear
8:55 PM 75.2 °F - 68.0 °F 78% 29.93 in 10.0 mi ESE 3.5 mph - N/A   Clear
9:15 PM 74.7 °F - 69.1 °F 83% 29.93 in 10.0 mi ESE 3.5 mph - N/A   Clear
9:35 PM 74.5 °F - 70.2 °F 86% 29.94 in 10.0 mi ESE 3.5 mph - N/A   Clear
9:55 PM 73.6 °F - 72.3 °F 96% 29.94 in 10.0 mi ESE 3.5 mph - N/A   Clear
10:15 PM 73.2 °F - 72.0 °F 96% 29.94 in 10.0 mi SE 4.6 mph - N/A   Clear
10:35 PM 73.4 °F - 73.4 °F 100% 29.94 in 10.0 mi SE 4.6 mph - N/A   Scattered Clouds
10:55 PM 74.3 °F - 74.3 °F 100% 29.94 in 10.0 mi SE 5.8 mph - N/A   Scattered Clouds
11:15 PM 75.2 °F - 72.5 °F 91% 29.94 in 10.0 mi SE 6.9 mph - N/A   Scattered Clouds
11:35 PM 75.2 °F - 72.0 °F 90% 29.94 in 10.0 mi SE 5.8 mph - N/A   Clear
11:55 PM 74.7 °F - 73.6 °F 96% 29.94 in 10.0 mi ESE 3.5 mph - N/A   Clear